Regional Weather Roundup
Issued by NWS

Home | Current Version | Previous Version | Graphics & Text | Print | Product List | Glossary Off
Versions: 1 2 3 4 5 6 7 8 9 10 11 12 13 14 15 16 17 18 19 20 21 22 23 24 25 26 27 28 29 30 31 32 33 34 35 36 37 38 39 40 41 42 43 44 45 46 47 48 49 50

000
ASUS43 KDMX 210601
RWRIA

WEATHER ROUNDUP FOR IOWA
NATIONAL WEATHER SERVICE DES MOINES IA
1200 AM CST TUE FEB 21 2017

NOTE: "FAIR" INDICATES FEW OR NO CLOUDS BELOW 12,000 FEET WITH NO
SIGNIFICANT WEATHER AND/OR OBSTRUCTIONS TO VISIBILITY.

* - THESE STATIONS ARE NOT NWS STATIONS...THUS NOT UNDER NWS
QUALITY CONTROL.  THEY ALSO DO NOT REPORT WEATHER SUCH
AS PRECIPITATION OR FOG.

IAZ001>003-012>014-020>022-031>034-043>046-210700-
   NORTHWEST IOWA

CITY           SKY/WX    TMP DP  RH WIND       PRES   REMARKS
CARROLL *      CLEAR     37  36  93 W8        29.92R WCI  31
CHEROKEE *     CLEAR     38  38 100 CALM      29.92S
DENISON *      CLEAR     37  37 100 CALM      29.93R FOG
LE MARS *      FOG       34  34 100 CALM      29.95R VSB 1/4
SHELDON *      CLEAR     34  34 100 CALM      29.92R FOG
SIOUX CITY     CLEAR     40  37  89 CALM      29.93F
6HR MIN TEMP:  39; 6HR MAX TEMP:  55;

SPENCER        CLEAR     36  35  96 W10       29.91R WCI  28
6HR MIN TEMP:  36; 6HR MAX TEMP:  49;

STORM LAKE *   CLEAR     39  37  93 W8        29.93R WCI  34
$$

IAZ055>058-069>071-079>083-090>094-210700-
   SOUTHWEST IOWA

CITY           SKY/WX    TMP DP  RH WIND       PRES   REMARKS
ATLANTIC *     CLEAR     43  41  93 CALM      29.93S
CLARINDA *     CLOUDY    45  45 100 CALM      29.95R
COUNCIL BLFS * CLEAR     46  45  93 NW6       29.94S
CRESTON *      MOCLDY    46  45  93 N7        29.92F
HARLAN  *      CLEAR     37  37 100 CALM      29.97R
LAMONI         CLOUDY    53  47  79 N8        29.91F
6HR MIN TEMP:  53; 6HR MAX TEMP:  61;

RED OAK *      CLEAR     43  41  93 CALM      29.94R
SHENANDOAH *   CLEAR     46  41  81 N3        29.94S
$$

IAZ047>049-059>061-072>074-084-210700-
   CENTRAL IOWA

CITY           SKY/WX    TMP DP  RH WIND       PRES   REMARKS
AMES           CLOUDY    46  45  96 NW3       29.91S
6HR MIN TEMP:  46; 6HR MAX TEMP:  58; 6HR PCP: TRACE;

ANKENY *       PTCLDY    46  45  93 CALM      29.92S
BOONE *        CLEAR     46  45  93 W6        29.90R
CHARITON *     MOCLDY    52  46  82 NW9       29.91F
DES MOINES     CLOUDY    52  45  77 NW6       29.91S
6HR MIN TEMP:  52; 6HR MAX TEMP:  61; 6HR PCP: TRACE;

GRINNELL*      CLOUDY    50  46  87 NW8       29.92F
KNOXVILLE *    CLOUDY    54  46  76 N8        29.89F
MARSHALLTOWN   CLOUDY    47  45  93 NW9       29.90R
6HR MIN TEMP:  47; 6HR MAX TEMP:  58; 6HR PCP: TRACE;

NEWTON *       CLOUDY    50  46  87 N9        29.90F
PELLA *        CLOUDY    51  47  85 N6        29.92F
PERRY *          N/A     44  42  93 W7        29.91S
$$

IAZ004>006-015-016-023>025-035-036-210700-
   NORTH CENTRAL IOWA

CITY           SKY/WX    TMP DP  RH WIND       PRES   REMARKS
ALGONA *       CLEAR     41  41 100 SW8       29.91R
CLARION *      CLEAR     43  43 100 W14       29.90R
ESTHERVILLE    CLEAR     39  38  96 W10       29.89R WCI  32
6HR MIN TEMP:  38; 6HR MAX TEMP:  49;

FORT DODGE *   CLEAR     39  37  93 SW3       29.92R
MASON CITY     CLEAR     41  38  89 W14       29.90R
6HR MIN TEMP:  40; 6HR MAX TEMP:  55; 6HR PCP: TRACE;

FOREST CITY *    N/A     36  36 100 CALM      29.89R
IOWA FALLS *     N/A     44  42  93 W7        29.91R
$$

IAZ007>011-017>019-026>030-037>042-050>054-066-210700-
   NORTHEAST IOWA

CITY           SKY/WX    TMP DP  RH WIND       PRES   REMARKS
CEDAR RAPIDS   FOG       53  53 100 SW8       29.88R VSB 3/4
6HR MIN TEMP:  52; 6HR MAX TEMP:  58; 6HR PCP:  0.03;

CHARLES CITY * PTCLDY    46  46 100 NW9       29.87R
DECORAH *      CLOUDY    48  45  87 W8G15     29.85R
DUBUQUE        FOG       52  52 100 SW9       29.87R VSB 1/4
6HR MIN TEMP:  51; 6HR MAX TEMP:  56; 6HR PCP:  0.11;

MONTICELLO *   FOG       54  54 100 CALM      29.87R VSB 1/4
OELWEIN *      CLOUDY    48  48 100 W10       29.89R
WATERLOO       MOCLDY    48  44  86 W8        29.89R
6HR MIN TEMP:  48; 6HR MAX TEMP:  56; 6HR PCP: TRACE;

$$

IAZ064-065-067-068-078-210700-
   EAST CENTRAL IOWA

CITY           SKY/WX    TMP DP  RH WIND       PRES   REMARKS
DAVENPORT      CLOUDY    56  55  97 S9        29.90R
6HR MIN TEMP:  56; 6HR MAX TEMP:  68; 6HR PCP:  0.35;

IOWA CITY      CLOUDY    54  54 100 W3        29.91R FOG
6HR MIN TEMP:  53; 6HR MAX TEMP:  62; 6HR PCP:  0.05;

MUSCATINE *    CLOUDY    55  55 100 S6        29.90S
QUAD CITIES    LGT RAIN  59  55  87 S3        29.89R
6HR MIN TEMP:  59; 6HR MAX TEMP:  70; 6HR PCP:  0.20;

$$

IAZ062-063-075>077-085>089-095>099-210700-
   SOUTHEAST IOWA

CITY           SKY/WX    TMP DP  RH WIND       PRES   REMARKS
BURLINGTON     LGT RAIN  58  58 100 S5        29.91R FOG
6HR MIN TEMP:  57; 6HR MAX TEMP:  70; 6HR PCP:  0.15;

FAIRFIELD *    CLOUDY    57  55  94 SW6       29.90R
KEOKUK *       CLOUDY    59  59 100 CALM      29.91R
OTTUMWA        CLOUDY    58  57  97 NW10      29.89S
6HR MIN TEMP:  56; 6HR MAX TEMP:  62; 6HR PCP: TRACE;

WASHINGTON *   MOCLDY    55  55 100 S8        29.91R FOG
$$

ABBREVIATIONS USED IN REMARKS
   TC - TEMPERATURES IN CELSIUS
  WCI - WIND CHILL INDEX
   HX - HEAT INDEX
  VSB - VISIBILITY
$$




USA.gov is the U.S. government's official web portal to all federal, state and local government web resources and services.